Orbital Elements at Epoch 2459200.5 (2020-Dec-17.0) TDB
Reference: JPL 24 (heliocentric ecliptic J2000)
Element | Value | Uncertainty (1-sigma) | Units |
e | .1359858318494593 | 3.7241e-08 | |
a | 2.277512755672941 | 7.8979e-09 | au |
q | 1.967803289045002 | 8.4356e-08 | au |
i | 4.175404997749609 | 4.1852e-06 | deg |
node | 201.1382717621015 | 5.0057e-05 | deg |
peri | 20.51296937516724 | 5.2065e-05 | deg |
M | 212.6540042306063 | 1.5929e-05 | deg |
tp | 2459714.337139357894 (2022-May-14.83713936) | 5.6622e-05 | TDB |
period | 1255.421765640309 3.44 | 6.5303e-06 1.788e-08 | d yr |
n | .2867562199834788 | 1.4916e-09 | deg/d |
Q | 2.587222222300881 | 8.9719e-09 | au |
|
| | Orbit Determination Parameters
Additional Information
|